^^
Saratoga-Weather Station Historical Data
Daily Summary for May 19, 2022 Units:  Metric    English   Both
Daily Weekly Monthly Yearly Custom
  High: Low: Average:
Temperature: 30.4 °C 15.6 °C 22.8 °C
Dew Point: 19.9 °C 12.7 °C 16.1 °C
Humidity: 85% 45% 68%
Wind Speed: 19.5km/h 0km/h 3.3km/h
Wind Gust: 22.5km/h - -
Wind- - SW
Pressure: 1019.3 hPa 1016.3 hPa -
Precipitation: 0.0 mm    
Historical Graphs
 
 
Tabular Data for May 19, 2022
Time Temperature Dew Point Pressure Wind Wind Speed Wind Gust Humidity Rainfall Rate (Hourly) solar
00:03 19.2 °C 14.5 °C 1017.6 hPa Calm     74% 0.0 mm 0 W/m2
00:08 19.1 °C 14.6 °C 1017.3 hPa Calm     75% 0.0 mm 0 W/m2
00:13 19.1 °C 14.6 °C 1017.3 hPa Calm     75% 0.0 mm 0 W/m2
00:18 19 °C 14.5 °C 1017.3 hPa Calm     75% 0.0 mm 0 W/m2
00:23 18.9 °C 14.4 °C 1017.3 hPa Calm   3.2 km/h 75% 0.0 mm 0 W/m2
00:28 18.8 °C 14.3 °C 1017.3 hPa Calm     75% 0.0 mm 0 W/m2
00:33 18.8 °C 14.5 °C 1016.9 hPa Calm   3.2 km/h 76% 0.0 mm 0 W/m2
00:38 18.7 °C 14.4 °C 1016.9 hPa Calm     76% 0.0 mm 0 W/m2
00:43 18.7 °C 14.4 °C 1016.9 hPa Calm     76% 0.0 mm 0 W/m2
00:48 18.6 °C 14.3 °C 1016.9 hPa Calm     76% 0.0 mm 0 W/m2
00:53 18.5 °C 14.2 °C 1016.9 hPa Calm     76% 0.0 mm 0 W/m2
00:58 18.4 °C 14.3 °C 1016.9 hPa Calm     77% 0.0 mm 0 W/m2
01:03 18.3 °C 14.2 °C 1016.9 hPa Calm     77% 0.0 mm 0 W/m2
01:08 18.3 °C 14.2 °C 1016.9 hPa Calm     77% 0.0 mm 0 W/m2
01:13 18.2 °C 14.1 °C 1016.9 hPa Calm     77% 0.0 mm 0 W/m2
01:18 18.1 °C 14.2 °C 1016.9 hPa Calm     78% 0.0 mm 0 W/m2
01:23 18.1 °C 14 °C 1016.9 hPa Calm   3.2 km/h 77% 0.0 mm 0 W/m2
01:28 18.1 °C 14 °C 1016.9 hPa SE 1.4 km/h 1.6 km/h 77% 0.0 mm 0 W/m2
01:33 18.1 °C 13.8 °C 1016.9 hPa Calm     76% 0.0 mm 0 W/m2
01:38 18.1 °C 13.8 °C 1016.9 hPa Calm     76% 0.0 mm 0 W/m2
01:43 18 °C 13.9 °C 1016.9 hPa Calm     77% 0.0 mm 0 W/m2
01:48 17.9 °C 13.8 °C 1016.9 hPa Calm     77% 0.0 mm 0 W/m2
01:53 17.9 °C 13.8 °C 1016.6 hPa Calm     77% 0.0 mm 0 W/m2
01:58 17.8 °C 13.7 °C 1016.6 hPa Calm     77% 0.0 mm 0 W/m2
02:03 17.7 °C 13.8 °C 1016.6 hPa Calm     78% 0.0 mm 0 W/m2
02:08 17.7 °C 13.8 °C 1016.6 hPa Calm     78% 0.0 mm 0 W/m2
02:13 17.6 °C 13.7 °C 1016.6 hPa Calm     78% 0.0 mm 0 W/m2
02:18 17.6 °C 13.7 °C 1016.6 hPa Calm     78% 0.0 mm 0 W/m2
02:23 17.4 °C 13.7 °C 1016.6 hPa Calm     79% 0.0 mm 0 W/m2
02:28 17.4 °C 13.7 °C 1016.6 hPa Calm     79% 0.0 mm 0 W/m2
02:33 17.3 °C 13.6 °C 1016.6 hPa Calm     79% 0.0 mm 0 W/m2
02:38 17.3 °C 13.6 °C 1016.6 hPa Calm     79% 0.0 mm 0 W/m2
02:43 17.3 °C 13.6 °C 1016.6 hPa Calm     79% 0.0 mm 0 W/m2
02:48 17.2 °C 13.5 °C 1016.6 hPa Calm   1.6 km/h 79% 0.0 mm 0 W/m2
02:53 17.2 °C 13.7 °C 1016.6 hPa SE 1.4 km/h 3.2 km/h 80% 0.0 mm 0 W/m2
02:58 17.1 °C 13.6 °C 1016.6 hPa Calm     80% 0.0 mm 0 W/m2
03:03 17.1 °C 13.4 °C 1016.6 hPa Calm     79% 0.0 mm 0 W/m2
03:08 17 °C 13.3 °C 1016.6 hPa Calm     79% 0.0 mm 0 W/m2
03:13 16.9 °C 13.2 °C 1016.6 hPa Calm     79% 0.0 mm 0 W/m2
03:18 16.8 °C 13.3 °C 1016.6 hPa Calm     80% 0.0 mm 0 W/m2
03:23 16.7 °C 13.2 °C 1016.6 hPa Calm     80% 0.0 mm 0 W/m2
03:28 16.6 °C 13.1 °C 1016.6 hPa Calm     80% 0.0 mm 0 W/m2
03:33 16.6 °C 13.3 °C 1016.6 hPa Calm     81% 0.0 mm 0 W/m2
03:38 16.4 °C 13.1 °C 1016.6 hPa Calm     81% 0.0 mm 0 W/m2
03:43 16.3 °C 13 °C 1016.6 hPa Calm     81% 0.0 mm 0 W/m2
03:48 16.3 °C 13 °C 1016.6 hPa Calm     81% 0.0 mm 0 W/m2
03:53 16.3 °C 13.2 °C 1016.6 hPa Calm     82% 0.0 mm 0 W/m2
03:58 16.3 °C 13.2 °C 1016.6 hPa Calm   1.6 km/h 82% 0.0 mm 0 W/m2
04:03 16.3 °C 13 °C 1016.6 hPa Calm     81% 0.0 mm 0 W/m2
04:08 16.3 °C 13 °C 1016.6 hPa Calm   1.6 km/h 81% 0.0 mm 0 W/m2
04:13 16.3 °C 13 °C 1016.6 hPa Calm     81% 0.0 mm 0 W/m2
04:18 16.3 °C 13 °C 1016.6 hPa Calm     81% 0.0 mm 0 W/m2
04:23 16.3 °C 13 °C 1016.6 hPa SE 1.4 km/h 1.6 km/h 81% 0.0 mm 0 W/m2
04:28 16.3 °C 13 °C 1016.6 hPa Calm     81% 0.0 mm 0 W/m2
04:33 16.3 °C 13 °C 1016.6 hPa Calm   1.6 km/h 81% 0.0 mm 0 W/m2
04:38 16.3 °C 13 °C 1016.6 hPa Calm     81% 0.0 mm 0 W/m2
04:43 16.2 °C 12.9 °C 1016.6 hPa Calm   1.6 km/h 81% 0.0 mm 0 W/m2
04:48 16.1 °C 12.8 °C 1016.6 hPa Calm     81% 0.0 mm 0 W/m2
04:53 16 °C 12.9 °C 1016.6 hPa Calm     82% 0.0 mm 0 W/m2
04:58 16 °C 12.9 °C 1016.6 hPa Calm     82% 0.0 mm 0 W/m2
05:03 15.9 °C 12.8 °C 1016.6 hPa Calm     82% 0.0 mm 0 W/m2
05:08 15.8 °C 12.7 °C 1016.6 hPa Calm     82% 0.0 mm 0 W/m2
05:13 15.7 °C 12.8 °C 1016.6 hPa Calm     83% 0.0 mm 0 W/m2
05:18 15.7 °C 12.8 °C 1016.6 hPa Calm     83% 0.0 mm 0 W/m2
05:23 15.6 °C 12.7 °C 1016.6 hPa Calm     83% 0.0 mm 0 W/m2
05:28 15.6 °C 12.9 °C 1016.6 hPa Calm     84% 0.0 mm 0 W/m2
05:33 15.6 °C 12.9 °C 1016.9 hPa Calm     84% 0.0 mm 0 W/m2
05:38 15.6 °C 12.9 °C 1016.9 hPa Calm     84% 0.0 mm 0 W/m2
05:43 15.6 °C 12.9 °C 1016.9 hPa Calm     84% 0.0 mm 0 W/m2
05:48 15.6 °C 12.9 °C 1016.9 hPa Calm     84% 0.0 mm 0 W/m2
05:53 15.6 °C 12.9 °C 1016.9 hPa Calm     84% 0.0 mm 0 W/m2
05:58 15.7 °C 13 °C 1016.9 hPa Calm     84% 0.0 mm 5 W/m2
06:03 15.7 °C 12.8 °C 1016.9 hPa Calm     83% 0.0 mm 9 W/m2
06:08 15.7 °C 12.8 °C 1016.9 hPa Calm     83% 0.0 mm 12 W/m2
06:13 15.7 °C 12.8 °C 1016.9 hPa Calm     83% 0.0 mm 14 W/m2
06:18 15.7 °C 13 °C 1016.9 hPa Calm     84% 0.0 mm 16 W/m2
06:23 15.7 °C 13 °C 1016.9 hPa Calm     84% 0.0 mm 19 W/m2
06:28 15.7 °C 13 °C 1016.9 hPa Calm     84% 0.0 mm 21 W/m2
06:33 15.7 °C 13 °C 1016.9 hPa Calm     84% 0.0 mm 23 W/m2
06:38 15.8 °C 13.1 °C 1016.9 hPa Calm     84% 0.0 mm 26 W/m2
06:43 15.8 °C 13.1 °C 1016.9 hPa Calm     84% 0.0 mm 28 W/m2
06:48 15.8 °C 13.1 °C 1016.9 hPa Calm     84% 0.0 mm 32 W/m2
06:53 15.9 °C 13.4 °C 1016.9 hPa Calm     85% 0.0 mm 33 W/m2
06:58 16 °C 13.5 °C 1016.9 hPa Calm     85% 0.0 mm 42 W/m2
07:03 16.1 °C 13.4 °C 1016.9 hPa Calm     84% 0.0 mm 53 W/m2
07:08 16.2 °C 13.5 °C 1016.9 hPa Calm     84% 0.0 mm 53 W/m2
07:13 16.2 °C 13.5 °C 1016.9 hPa Calm     84% 0.0 mm 95 W/m2
07:18 16.4 °C 13.7 °C 1016.9 hPa Calm     84% 0.0 mm 91 W/m2
07:23 16.7 °C 13.8 °C 1017.3 hPa Calm     83% 0.0 mm 130 W/m2
07:28 17.3 °C 14.2 °C 1017.3 hPa Calm     82% 0.0 mm 141 W/m2
07:33 17.8 °C 14.3 °C 1017.3 hPa Calm     80% 0.0 mm 146 W/m2
07:38 18.2 °C 14.1 °C 1017.3 hPa Calm     77% 0.0 mm 171 W/m2
07:43 18.6 °C 14.3 °C 1016.9 hPa Calm     76% 0.0 mm 176 W/m2
07:48 19.1 °C 14.4 °C 1017.3 hPa Calm     74% 0.0 mm 190 W/m2
07:53 19.3 °C 14.3 °C 1017.3 hPa Calm     73% 0.0 mm 206 W/m2
07:58 19.6 °C 14.4 °C 1017.3 hPa Calm   3.2 km/h 72% 0.0 mm 213 W/m2
08:03 19.8 °C 14.6 °C 1017.3 hPa East 3.2 km/h 3.2 km/h 72% 0.0 mm 244 W/m2
08:08 20.2 °C 14.6 °C 1017.3 hPa ENE 3.2 km/h 3.2 km/h 70% 0.0 mm 183 W/m2
08:13 20.4 °C 14.5 °C 1017.3 hPa Calm   4.8 km/h 69% 0.0 mm 135 W/m2
08:18 20.5 °C 14.4 °C 1017.3 hPa ENE 3.2 km/h 3.2 km/h 68% 0.0 mm 118 W/m2
08:23 20.6 °C 14.7 °C 1017.3 hPa ENE 3.2 km/h 4.8 km/h 69% 0.0 mm 123 W/m2
08:28 20.6 °C 14.5 °C 1017.3 hPa Calm   4.8 km/h 68% 0.0 mm 139 W/m2
08:33 20.7 °C 14.8 °C 1017.3 hPa East 4.7 km/h 4.8 km/h 69% 0.0 mm 156 W/m2
08:43 21.1 °C 15 °C 1017.3 hPa NE 3.2 km/h 4.8 km/h 68% 0.0 mm 188 W/m2
08:48 21.2 °C 14.8 °C 1017.3 hPa NE 1.4 km/h 6.4 km/h 67% 0.0 mm 206 W/m2
08:54 21.3 °C 14.9 °C 1017.3 hPa SE 3.2 km/h 4.8 km/h 67% 0.0 mm 213 W/m2
08:59 21.3 °C 14.9 °C 1017.3 hPa East 3.2 km/h 4.8 km/h 67% 0.0 mm 214 W/m2
09:04 21.4 °C 14.8 °C 1017.3 hPa East 4.7 km/h 11.3 km/h 66% 0.0 mm 211 W/m2
09:09 21.4 °C 14.8 °C 1017.3 hPa ESE 3.2 km/h 8 km/h 66% 0.0 mm 206 W/m2
09:14 21.5 °C 14.9 °C 1017.3 hPa ENE 3.2 km/h 9.7 km/h 66% 0.0 mm 197 W/m2
09:19 21.4 °C 15 °C 1017.3 hPa SE 3.2 km/h 6.4 km/h 67% 0.0 mm 193 W/m2
09:24 21.4 °C 15 °C 1017.3 hPa East 1.4 km/h 6.4 km/h 67% 0.0 mm 193 W/m2
09:29 21.6 °C 15.2 °C 1017.3 hPa ESE 3.2 km/h 6.4 km/h 67% 0.0 mm 183 W/m2
09:34 21.7 °C 15.3 °C 1017.3 hPa ENE 1.4 km/h 6.4 km/h 67% 0.0 mm 183 W/m2
09:39 21.8 °C 15.4 °C 1017.3 hPa SE 4.7 km/h 9.7 km/h 67% 0.0 mm 179 W/m2
09:44 21.9 °C 15.3 °C 1017.3 hPa NE 4.7 km/h 6.4 km/h 66% 0.0 mm 192 W/m2
09:49 22.1 °C 15.4 °C 1017.3 hPa North 1.4 km/h 9.7 km/h 66% 0.0 mm 207 W/m2
09:54 22.4 °C 15.5 °C 1017.3 hPa Calm   8 km/h 65% 0.0 mm 211 W/m2
09:59 22.6 °C 15.7 °C 1017.3 hPa East 4.7 km/h 6.4 km/h 65% 0.0 mm 216 W/m2
10:04 22.6 °C 15.4 °C 1017.3 hPa ENE 4.7 km/h 4.8 km/h 64% 0.0 mm 299 W/m2
10:09 22.7 °C 15.8 °C 1016.9 hPa ESE 3.2 km/h 6.4 km/h 65% 0.0 mm 371 W/m2
10:14 22.8 °C 15.9 °C 1016.9 hPa ENE 4.7 km/h 4.8 km/h 65% 0.0 mm 504 W/m2
10:19 23.2 °C 16 °C 1016.9 hPa East 6.4 km/h 11.3 km/h 64% 0.0 mm 636 W/m2
10:24 23.3 °C 16.1 °C 1016.9 hPa ENE 6.4 km/h 9.7 km/h 64% 0.0 mm 508 W/m2
10:29 23.6 °C 16.4 °C 1017.3 hPa East 4.7 km/h 6.4 km/h 64% 0.0 mm 622 W/m2
10:34 23.6 °C 16.1 °C 1017.3 hPa East 1.4 km/h 3.2 km/h 63% 0.0 mm 515 W/m2
10:39 23.8 °C 16.3 °C 1017.3 hPa SSW 1.4 km/h 3.2 km/h 63% 0.0 mm 181 W/m2
10:44 24.1 °C 16.9 °C 1017.3 hPa Calm   4.8 km/h 64% 0.0 mm 555 W/m2
10:49 24.5 °C 16.7 °C 1016.9 hPa NE 1.4 km/h 3.2 km/h 62% 0.0 mm 612 W/m2
10:54 24.8 °C 16.5 °C 1016.9 hPa NE 1.4 km/h 4.8 km/h 60% 0.0 mm 638 W/m2
10:59 25.1 °C 16.8 °C 1016.9 hPa East 11.1 km/h 11.3 km/h 60% 0.0 mm 703 W/m2
11:04 25.2 °C 16.9 °C 1016.9 hPa East 3.2 km/h 9.7 km/h 60% 0.0 mm 605 W/m2
11:09 25.4 °C 17.1 °C 1016.9 hPa East 4.7 km/h 8 km/h 60% 0.0 mm 633 W/m2
11:14 25.4 °C 17.1 °C 1016.9 hPa SE 3.2 km/h 6.4 km/h 60% 0.0 mm 687 W/m2
11:19 25.7 °C 17.4 °C 1016.9 hPa NNE 4.7 km/h 4.8 km/h 60% 0.0 mm 626 W/m2
11:24 26.1 °C 17.2 °C 1016.9 hPa NNE 4.7 km/h 6.4 km/h 58% 0.0 mm 640 W/m2
11:29 26.2 °C 17.3 °C 1016.9 hPa North 1.4 km/h 3.2 km/h 58% 0.0 mm 700 W/m2
11:34 26.4 °C 16.9 °C 1016.6 hPa Calm   11.3 km/h 56% 0.0 mm 555 W/m2
11:39 26.5 °C 17 °C 1016.9 hPa West 4.7 km/h 11.3 km/h 56% 0.0 mm 712 W/m2
11:44 26.5 °C 17.6 °C 1016.9 hPa WNW 4.7 km/h 4.8 km/h 58% 0.0 mm 682 W/m2
11:49 26.4 °C 17.2 °C 1016.9 hPa Calm   9.7 km/h 57% 0.0 mm 708 W/m2
11:54 26.6 °C 17.7 °C 1016.9 hPa WNW 6.4 km/h 11.3 km/h 58% 0.0 mm 598 W/m2
11:59 26.5 °C 17 °C 1016.9 hPa West 13 km/h 16.1 km/h 56% 0.0 mm 705 W/m2
12:04 26.6 °C 17.4 °C 1016.9 hPa WNW 6.4 km/h 8 km/h 57% 0.0 mm 694 W/m2
12:09 26.7 °C 18 °C 1016.9 hPa SSW 3.2 km/h 4.8 km/h 59% 0.0 mm 810 W/m2
12:14 26.8 °C 17.6 °C 1016.9 hPa WSW 3.2 km/h 12.9 km/h 57% 0.0 mm 795 W/m2
12:19 26.8 °C 17.6 °C 1016.9 hPa West 11.1 km/h 11.3 km/h 57% 0.0 mm 763 W/m2
12:24 27 °C 17.8 °C 1016.9 hPa East 1.4 km/h 4.8 km/h 57% 0.0 mm 680 W/m2
12:29 27.3 °C 17.8 °C 1016.9 hPa NE 1.4 km/h 11.3 km/h 56% 0.0 mm 668 W/m2
12:34 27.6 °C 18 °C 1016.9 hPa NNE 6.4 km/h 8 km/h 56% 0.0 mm 789 W/m2
12:39 27.7 °C 18.1 °C 1016.9 hPa ENE 4.7 km/h 12.9 km/h 56% 0.0 mm 659 W/m2
12:44 27.9 °C 18.3 °C 1016.9 hPa WNW 3.2 km/h 12.9 km/h 56% 0.0 mm 793 W/m2
12:49 28 °C 18.1 °C 1016.6 hPa NNW 6.4 km/h 6.4 km/h 55% 0.0 mm 754 W/m2
12:54 27.9 °C 18.6 °C 1016.6 hPa WNW 3.2 km/h 3.2 km/h 57% 0.0 mm 770 W/m2
12:59 27.9 °C 18 °C 1016.6 hPa WSW 4.7 km/h 11.3 km/h 55% 0.0 mm 756 W/m2
13:04 28 °C 18.7 °C 1016.6 hPa WNW 7.9 km/h 9.7 km/h 57% 0.0 mm 758 W/m2
13:09 28.2 °C 18.6 °C 1016.6 hPa WNW 6.4 km/h 17.7 km/h 56% 0.0 mm 649 W/m2
13:14 28.2 °C 18.6 °C 1016.6 hPa NNW 3.2 km/h 4.8 km/h 56% 0.0 mm 629 W/m2
13:19 28.5 °C 18.9 °C 1016.6 hPa NW 7.9 km/h 8 km/h 56% 0.0 mm 531 W/m2
13:24 28.5 °C 18.6 °C 1016.6 hPa SW 4.7 km/h 16.1 km/h 55% 0.0 mm 585 W/m2
13:34 28.3 °C 18.7 °C 1016.6 hPa West 3.2 km/h 8 km/h 56% 0.0 mm 652 W/m2
13:39 28.7 °C 19.1 °C 1016.6 hPa West 6.4 km/h 11.3 km/h 56% 0.0 mm 670 W/m2
13:44 28.9 °C 18.7 °C 1016.6 hPa NW 6.4 km/h 12.9 km/h 54% 0.0 mm 679 W/m2
13:49 28.8 °C 18.9 °C 1016.6 hPa WSW 7.9 km/h 12.9 km/h 55% 0.0 mm 775 W/m2
13:54 28.9 °C 19 °C 1016.6 hPa SE 1.4 km/h 4.8 km/h 55% 0.0 mm 721 W/m2
13:59 29.2 °C 18.9 °C 1016.6 hPa WSW 3.2 km/h 14.5 km/h 54% 0.0 mm 724 W/m2
14:04 29.2 °C 18.6 °C 1016.6 hPa West 11.1 km/h 14.5 km/h 53% 0.0 mm 747 W/m2
14:09 29.1 °C 18.8 °C 1016.6 hPa SSW 3.2 km/h 16.1 km/h 54% 0.0 mm 480 W/m2
14:14 29 °C 18.1 °C 1016.6 hPa WSW 4.7 km/h 14.5 km/h 52% 0.0 mm 422 W/m2
14:19 29.1 °C 17.9 °C 1016.6 hPa West 19.5 km/h 19.3 km/h 51% 0.0 mm 942 W/m2
14:24 29.2 °C 17.7 °C 1016.6 hPa North 4.7 km/h 9.7 km/h 50% 0.0 mm 837 W/m2
14:29 29.3 °C 17.5 °C 1016.6 hPa West 19.3 km/h 19.3 km/h 49% 0.0 mm 875 W/m2
14:34 29.3 °C 16.8 °C 1016.6 hPa West 4.7 km/h 11.3 km/h 47% 0.0 mm 626 W/m2
14:39 29.3 °C 17.2 °C 1016.6 hPa ENE 4.7 km/h 11.3 km/h 48% 0.0 mm 891 W/m2
14:44 29.7 °C 17.5 °C 1016.6 hPa WNW 6.4 km/h 11.3 km/h 48% 0.0 mm 919 W/m2
14:49 29.8 °C 17.6 °C 1016.6 hPa SW 11.1 km/h 16.1 km/h 48% 0.0 mm 819 W/m2
14:54 29.8 °C 17.3 °C 1016.3 hPa WSW 6.4 km/h 17.7 km/h 47% 0.0 mm 821 W/m2
14:59 29.7 °C 17.5 °C 1016.3 hPa WNW 4.7 km/h 6.4 km/h 48% 0.0 mm 213 W/m2
15:04 29.4 °C 17.6 °C 1016.6 hPa SW 6.4 km/h 17.7 km/h 49% 0.0 mm 390 W/m2
15:09 29.3 °C 17.8 °C 1016.6 hPa NW 6.4 km/h 9.7 km/h 50% 0.0 mm 461 W/m2
15:14 29.1 °C 17.6 °C 1016.6 hPa NW 3.2 km/h 9.7 km/h 50% 0.0 mm 925 W/m2
15:19 29.1 °C 17.6 °C 1016.6 hPa NW 9.7 km/h 14.5 km/h 50% 0.0 mm 868 W/m2
15:25 29.1 °C 17.3 °C 1016.6 hPa WSW 6.4 km/h 16.1 km/h 49% 0.0 mm 526 W/m2
15:30 29 °C 17.5 °C 1016.6 hPa NW 1.4 km/h 6.4 km/h 50% 0.0 mm 417 W/m2
15:35 29.1 °C 17.6 °C 1016.6 hPa NW 3.2 km/h 9.7 km/h 50% 0.0 mm 905 W/m2
15:40 29.4 °C 17.9 °C 1016.6 hPa West 4.7 km/h 9.7 km/h 50% 0.0 mm 877 W/m2
15:45 29.4 °C 17.9 °C 1016.6 hPa West 1.4 km/h 6.4 km/h 50% 0.0 mm 795 W/m2
15:50 29.7 °C 17.8 °C 1016.6 hPa West 3.2 km/h 9.7 km/h 49% 0.0 mm 802 W/m2
15:55 30 °C 17.5 °C 1016.3 hPa SW 1.4 km/h 4.8 km/h 47% 0.0 mm 782 W/m2
16:00 30.2 °C 17.6 °C 1016.3 hPa NW 9.7 km/h 11.3 km/h 47% 0.0 mm 768 W/m2
16:05 30.1 °C 17.2 °C 1016.3 hPa WNW 14.3 km/h 17.7 km/h 46% 0.0 mm 751 W/m2
16:10 30.1 °C 17.2 °C 1016.3 hPa WSW 4.7 km/h 9.7 km/h 46% 0.0 mm 744 W/m2
16:15 30.2 °C 17.3 °C 1016.3 hPa WNW 6.4 km/h 8 km/h 46% 0.0 mm 726 W/m2
16:20 30.1 °C 17.5 °C 1016.3 hPa WNW 16.3 km/h 16.1 km/h 47% 0.0 mm 714 W/m2
16:25 30 °C 17.1 °C 1016.3 hPa West 9.7 km/h 12.9 km/h 46% 0.0 mm 729 W/m2
16:30 29.9 °C 17.4 °C 1016.3 hPa NNW 7.9 km/h 11.3 km/h 47% 0.0 mm 612 W/m2
16:35 29.9 °C 17.4 °C 1016.3 hPa WNW 1.4 km/h 12.9 km/h 47% 0.0 mm 761 W/m2
16:40 30.2 °C 17.3 °C 1016.3 hPa WNW 6.4 km/h 11.3 km/h 46% 0.0 mm 135 W/m2
16:45 30.2 °C 17.3 °C 1016.6 hPa North 13 km/h 12.9 km/h 46% 0.0 mm 691 W/m2
16:50 30.1 °C 16.9 °C 1016.6 hPa NNW 7.9 km/h 12.9 km/h 45% 0.0 mm 686 W/m2
16:55 30 °C 17.1 °C 1016.6 hPa WNW 4.7 km/h 14.5 km/h 46% 0.0 mm 656 W/m2
17:00 30.1 °C 16.9 °C 1016.3 hPa West 9.7 km/h 22.5 km/h 45% 0.0 mm 650 W/m2
17:05 30.2 °C 17.3 °C 1016.3 hPa South 3.2 km/h 6.4 km/h 46% 0.0 mm 633 W/m2
17:10 30.4 °C 17.1 °C 1016.3 hPa WNW 14.3 km/h 14.5 km/h 45% 0.0 mm 622 W/m2
17:15 30.1 °C 16.9 °C 1016.3 hPa WNW 11.1 km/h 16.1 km/h 45% 0.0 mm 601 W/m2
17:20 30 °C 17.5 °C 1016.3 hPa NW 11.1 km/h 19.3 km/h 47% 0.0 mm 596 W/m2
17:30 29.9 °C 17.7 °C 1016.3 hPa NW 7.9 km/h 16.1 km/h 48% 0.0 mm 573 W/m2
17:35 29.9 °C 17.7 °C 1016.3 hPa West 13 km/h 16.1 km/h 48% 0.0 mm 552 W/m2
17:40 29.8 °C 17.3 °C 1016.3 hPa SW 6.4 km/h 16.1 km/h 47% 0.0 mm 538 W/m2
17:45 29.8 °C 17.6 °C 1016.3 hPa WNW 3.2 km/h 17.7 km/h 48% 0.0 mm 534 W/m2
17:50 29.9 °C 17.4 °C 1016.3 hPa SW 6.4 km/h 20.9 km/h 47% 0.0 mm 462 W/m2
17:55 29.6 °C 17.8 °C 1016.6 hPa South 4.7 km/h 11.3 km/h 49% 0.0 mm 88 W/m2
18:00 29.4 °C 17.6 °C 1016.3 hPa NW 6.4 km/h 22.5 km/h 49% 0.0 mm 496 W/m2
18:05 29.4 °C 17.9 °C 1016.3 hPa NW 7.9 km/h 14.5 km/h 50% 0.0 mm 476 W/m2
18:10 29.3 °C 17.8 °C 1016.6 hPa West 9.7 km/h 22.5 km/h 50% 0.0 mm 165 W/m2
18:20 29.2 °C 18 °C 1016.6 hPa West 14.3 km/h 14.5 km/h 51% 0.0 mm 494 W/m2
18:25 28.8 °C 17.7 °C 1016.6 hPa SW 6.4 km/h 17.7 km/h 51% 0.0 mm 84 W/m2
18:30 28.6 °C 18.1 °C 1016.9 hPa West 9.7 km/h 11.3 km/h 53% 0.0 mm 160 W/m2
18:35 28.3 °C 19 °C 1016.9 hPa NNW 4.7 km/h 16.1 km/h 57% 0.0 mm 132 W/m2
18:40 27.9 °C 19.1 °C 1016.9 hPa WNW 9.7 km/h 17.7 km/h 59% 0.0 mm 125 W/m2
18:45 27.6 °C 19.1 °C 1016.9 hPa West 9.7 km/h 16.1 km/h 60% 0.0 mm 139 W/m2
18:50 27.6 °C 19.1 °C 1016.9 hPa West 6.4 km/h 17.7 km/h 60% 0.0 mm 137 W/m2
18:55 27.4 °C 19.5 °C 1016.9 hPa West 9.7 km/h 17.7 km/h 62% 0.0 mm 104 W/m2
19:00 27.4 °C 19.5 °C 1016.9 hPa WNW 7.9 km/h 12.9 km/h 62% 0.0 mm 81 W/m2
19:05 27.3 °C 19.4 °C 1016.9 hPa WNW 16.3 km/h 17.7 km/h 62% 0.0 mm 84 W/m2
19:10 27.4 °C 19.5 °C 1016.9 hPa WNW 7.9 km/h 11.3 km/h 62% 0.0 mm 76 W/m2
19:15 27.5 °C 19.6 °C 1016.9 hPa WNW 13 km/h 12.9 km/h 62% 0.0 mm 63 W/m2
19:20 27.2 °C 19.3 °C 1016.9 hPa WNW 11.1 km/h 16.1 km/h 62% 0.0 mm 62 W/m2
19:25 27 °C 19.4 °C 1016.9 hPa SW 7.9 km/h 12.9 km/h 63% 0.0 mm 44 W/m2
19:30 26.8 °C 19.4 °C 1017.3 hPa NW 4.7 km/h 8 km/h 64% 0.0 mm 49 W/m2
19:35 26.8 °C 19.7 °C 1017.3 hPa West 11.1 km/h 19.3 km/h 65% 0.0 mm 63 W/m2
19:40 26.8 °C 19.9 °C 1017.3 hPa NNW 3.2 km/h 8 km/h 66% 0.0 mm 58 W/m2
19:45 26.8 °C 19.9 °C 1017.3 hPa WNW 4.7 km/h 19.3 km/h 66% 0.0 mm 54 W/m2
19:50 26.7 °C 19.8 °C 1017.3 hPa West 4.7 km/h 12.9 km/h 66% 0.0 mm 51 W/m2
19:55 26.5 °C 19.6 °C 1017.3 hPa WNW 4.7 km/h 17.7 km/h 66% 0.0 mm 49 W/m2
20:00 26.3 °C 19.7 °C 1017.3 hPa WNW 6.4 km/h 9.7 km/h 67% 0.0 mm 62 W/m2
20:05 26.1 °C 19.7 °C 1017.3 hPa WSW 7.9 km/h 9.7 km/h 68% 0.0 mm 39 W/m2
20:10 25.9 °C 19.5 °C 1017.6 hPa WSW 6.4 km/h 9.7 km/h 68% 0.0 mm 30 W/m2
20:15 25.7 °C 19.3 °C 1017.6 hPa West 6.4 km/h 9.7 km/h 68% 0.0 mm 30 W/m2
20:20 25.6 °C 19.5 °C 1017.6 hPa NNE 17.7 km/h 17.7 km/h 69% 0.0 mm 25 W/m2
20:25 25.5 °C 19.4 °C 1017.6 hPa West 4.7 km/h 11.3 km/h 69% 0.0 mm 32 W/m2
20:30 25.4 °C 19.3 °C 1018.0 hPa West 6.4 km/h 16.1 km/h 69% 0.0 mm 33 W/m2
20:35 25.3 °C 19.2 °C 1018.0 hPa West 3.2 km/h 6.4 km/h 69% 0.0 mm 26 W/m2
20:40 25.2 °C 19.1 °C 1018.0 hPa West 3.2 km/h 11.3 km/h 69% 0.0 mm 28 W/m2
20:45 25.1 °C 19 °C 1018.0 hPa NNW 6.4 km/h 9.7 km/h 69% 0.0 mm 25 W/m2
20:50 25 °C 19.1 °C 1018.0 hPa West 4.7 km/h 12.9 km/h 70% 0.0 mm 21 W/m2
20:55 24.9 °C 19 °C 1018.0 hPa NW 1.4 km/h 3.2 km/h 70% 0.0 mm 18 W/m2
21:00 24.8 °C 19 °C 1018.3 hPa NW 6.4 km/h 12.9 km/h 70% 0.0 mm 16 W/m2
21:05 24.7 °C 19.5 °C 1018.3 hPa NNW 7.9 km/h 8 km/h 73% 0.0 mm 11 W/m2
21:10 24.3 °C 19.4 °C 1018.3 hPa ENE 1.4 km/h 6.4 km/h 74% 0.0 mm 7 W/m2
21:15 24 °C 19.1 °C 1018.3 hPa NW 6.4 km/h 6.4 km/h 74% 0.0 mm 0 W/m2
21:20 23.8 °C 18.9 °C 1018.3 hPa ESE 3.2 km/h 4.8 km/h 74% 0.0 mm 0 W/m2
21:25 23.6 °C 18.9 °C 1018.3 hPa ENE 1.4 km/h 8 km/h 75% 0.0 mm 0 W/m2
21:30 23.3 °C 18.6 °C 1018.6 hPa WNW 3.2 km/h 8 km/h 75% 0.0 mm 0 W/m2
21:35 23.1 °C 18.2 °C 1018.6 hPa Calm   8 km/h 74% 0.0 mm 0 W/m2
21:40 22.8 °C 18.1 °C 1018.6 hPa Calm   8 km/h 75% 0.0 mm 0 W/m2
21:45 22.6 °C 17.9 °C 1018.6 hPa South 1.4 km/h 8 km/h 75% 0.0 mm 0 W/m2
21:50 22.3 °C 17.4 °C 1019.0 hPa WSW 1.4 km/h 4.8 km/h 74% 0.0 mm 0 W/m2
21:55 22.1 °C 17.5 °C 1019.0 hPa ENE 1.4 km/h 6.4 km/h 75% 0.0 mm 0 W/m2
22:00 22 °C 17.4 °C 1019.0 hPa ENE 1.4 km/h 1.6 km/h 75% 0.0 mm 0 W/m2
22:05 21.9 °C 17.3 °C 1019.0 hPa SE 3.2 km/h 3.2 km/h 75% 0.0 mm 0 W/m2
22:10 21.8 °C 17.2 °C 1019.0 hPa Calm   4.8 km/h 75% 0.0 mm 0 W/m2
22:15 21.7 °C 17.3 °C 1019.0 hPa NNW 1.4 km/h 1.6 km/h 76% 0.0 mm 0 W/m2
22:20 21.6 °C 17.2 °C 1019.0 hPa Calm   1.6 km/h 76% 0.0 mm 0 W/m2
22:25 21.5 °C 17.1 °C 1019.0 hPa Calm   4.8 km/h 76% 0.0 mm 0 W/m2
22:31 21.4 °C 17 °C 1019.3 hPa Calm   3.2 km/h 76% 0.0 mm 0 W/m2
22:36 21.3 °C 16.9 °C 1019.3 hPa Calm   4.8 km/h 76% 0.0 mm 0 W/m2
22:41 21.2 °C 17 °C 1019.3 hPa ESE 1.4 km/h 1.6 km/h 77% 0.0 mm 0 W/m2
22:51 21.1 °C 16.9 °C 1019.3 hPa Calm     77% 0.0 mm 0 W/m2
22:56 21 °C 16.8 °C 1019.3 hPa Calm     77% 0.0 mm 0 W/m2
23:01 20.9 °C 16.9 °C 1019.3 hPa ENE 1.4 km/h 3.2 km/h 78% 0.0 mm 0 W/m2
23:06 20.8 °C 16.8 °C 1019.3 hPa Calm   4.8 km/h 78% 0.0 mm 0 W/m2
23:11 20.8 °C 17 °C 1019.3 hPa Calm   4.8 km/h 79% 0.0 mm 0 W/m2
23:16 20.7 °C 16.9 °C 1019.3 hPa ENE 1.4 km/h 1.6 km/h 79% 0.0 mm 0 W/m2
23:21 20.6 °C 16.8 °C 1019.3 hPa Calm     79% 0.0 mm 0 W/m2
23:26 20.4 °C 16.8 °C 1019.3 hPa Calm     80% 0.0 mm 0 W/m2
23:31 20.2 °C 16.6 °C 1019.3 hPa Calm   3.2 km/h 80% 0.0 mm 0 W/m2
23:36 20.1 °C 16.7 °C 1019.3 hPa Calm     81% 0.0 mm 0 W/m2
23:41 19.9 °C 16.5 °C 1019.3 hPa Calm     81% 0.0 mm 0 W/m2
23:46 19.8 °C 16.6 °C 1019.3 hPa Calm     82% 0.0 mm 0 W/m2
23:51 19.7 °C 16.7 °C 1019.3 hPa Calm     83% 0.0 mm 0 W/m2
23:56 19.6 °C 16.6 °C 1019.3 hPa Calm     83% 0.0 mm 0 W/m2
Juneau County Weather
Compliments of Weather Underground - 4 mb